Temp
76 71 66 72 74 74 72 69 68 75 78 74 75 77 81 86 88 89 90 92 93 94 96 94 91 90 90 89 86 85 85 83 85 86 86 86 84 85 86 87 84 83 84 83
70 66 75 77 75 71 70 67 68 74 77 75 74 74 80 84 85 88 89 91 94 90 90 92 89 87 86 86 85 84 84 82 84 86 86 88 86 86 86 86 82 83 82 82
68 73 76 74 71 67 68 67 68 68 74 77 72 70 75 82 85 88 90 92 94 96 92 89 88 84 86 83 84 84 84 82 82 85 86 84 85 84 83 82 80 81 82 82
73 78 74 71 68 71 64 74 71 69 67 62 76 61 74 80 80 84 87 90 93 94 95 95 90 85 82 83 84 83 81 80 82 83 82 79 79 78 80 81 85 81 81 81
69 71 71 68 70 74 68 76 71 70 67 66 67 63 70 79 74 80 85 89 92 95 96 97 95 92 87 87 85 81 78 77 82 81 82 79 80 83 83 84 80 79 78 80
71 77 74 73 76 76 76 71 70 70 67 56 64 64 67 73 75 79 85 89 90 93 96 97 98 95 92 89 87 83 81 79 79 80 79 79 79 82 82 81 79 81 81 80
68 69 74 71 69 75 72 65 54 53 54 52 68 64 68 76 76 75 77 80 82 85 89 93 95 95 93 87 89 87 81 80 80 76 74 78 79 79 76 78 80 80 81 81
58 56 66 67 66 66 69 66 56 45 49 58 68 58 67 73 74 76 77 78 79 81 84 84 87 93 96 90 89 88 85 83 82 81 80 80 80 83 81 80 84 83 84 82
54 56 65 65 66 65 65 60 70 59 62 58 63 67 69 72 70 72 73 74 75 78 81 82 85 86 90 94 90 88 87 85 82 76 80 80 81 79 80 77 80 83 82 83
54 47 63 62 65 68 63 66 56 59 46 46 58 60 63 65 65 68 69 71 73 76 80 82 84 83 84 89 92 89 88 86 83 78 78 79 76 71 73 76 79 80 80 81
54 50 54 59 55 55 58 58 59 58 58 49 49 58 69 65 64 64 67 70 72 75 78 81 83 84 86 88 91 91 87 86 81 79 80 79 76 70 69 74 77 77 78 78
54 49 45 52 56 56 54 49 52 45 47 57 57 57 65 65 66 65 66 69 72 74 77 80 82 82 83 85 89 90 89 86 83 81 80 76 71 70 70 68 78 78 76 78
53 47 41 46 51 55 51 51 50 48 48 47 41 52 64 64 64 65 65 68 71 73 75 78 79 80 80 81 83 88 92 88 87 83 81 77 74 68 68 70 76 78 78 78
51 48 44 40 44 48 44 48 50 48 42 44 46 55 58 62 63 65 66 67 69 71 73 75 76 78 78 78 80 85 90 90 87 85 82 77 74 72 71 67 71 76 78 77
50 43 47 48 49 48 47 47 49 47 49 44 51 52 59 62 62 64 64 66 67 68 71 73 73 74 76 76 76 80 85 88 86 84 81 77 74 74 72 71 67 71 78 77
52 42 45 43 48 48 45 49 50 49 50 50 51 50 62 64 65 64 64 65 65 67 69 71 72 73 73 75 75 75 78 82 84 82 80 78 76 75 74 72 71 72 73 76
47 45 42 38 46 44 39 48 51 51 53 52 47 56 62 60 61 62 64 65 64 65 67 69 71 72 72 74 75 74 76 78 79 80 80 79 77 76 74 75 75 75 71 72
46 44 44 38 42 28 48 54 53 52 55 56 56 58 60 60 63 65 67 65 64 66 67 69 71 71 72 74 74 75 75 74 73 76 79 80 79 77 76 73 74 74 73 72
51 46 38 32 35 42 47 52 49 49 49 58 56 59 60 62 62 61 66 67 66 66 67 69 71 72 72 72 73 74 72 69 70 69 72 77 77 76 75 73 73 74 74 74
49 48 40 39 28 26 46 53 58 55 40 58 59 57 56 58 51 59 64 63 64 65 66 67 69 71 72 71 72 72 71 69 67 66 64 68 75 75 73 75 74 76 76 75
42 41 33 33 30 39 52 57 58 37 43 56 57 57 57 54 58 61 62 63 65 65 66 68 69 69 70 70 64 66 70 68 67 67 62 63 64 71 71 71 71 73 73 73
40 36 34 36 29 27 56 54 45 53 58 58 57 56 54 57 59 60 62 62 64 64 65 67 67 68 70 71 64 58 62 66 67 65 61 57 59 64 67 68 68 69 69 68
35 43 38 40 40 53 55 51 53 54 53 53 54 56 57 55 56 60 60 62 63 64 64 66 66 67 69 69 66 62 59 62 60 58 58 56 52 56 58 62 59 60 64 64
44 47 35 36 42 46 49 52 53 53 52 54 54 53 54 53 55 56 59 61 62 64 64 66 65 66 67 69 69 67 64 65 60 53 55 53 52 53 51 51 53 62 65 65
44 41 38 38 44 45 47 49 49 51 52 52 54 54 52 52 55 59 59 60 62 64 65 65 65 65 66 66 66 68 68 65 62 59 54 50 50 51 49 46 47 54 51 53
46 40 35 33 39 36 37 42 45 41 41 43 44 47 53 54 57 60 60 61 62 62 64 64 64 65 65 65 66 66 66 67 63 59 58 51 49 49 48 47 45 40 42 42
MSLP
1007.98 1007.49 1006.58 1006.06 1006.12 1005.81 1005.31 1005.05 1004.45 1003.97 1004.04 1004.35 1003.27 1002.48 1002.04 1001.77 1001.39 1000.90 1000.86 1000.48 1000.47 1000.92 1002.09 1003.48 1004.36 1005.48 1006.47 1007.51 1008.49 1008.74 1009.44 1010.63 1011.65 1012.28 1012.64 1013.26 1013.85 1014.62 1015.20 1015.64 1016.57 1016.97 1017.16 1017.51
1007.46 1006.39 1005.74 1005.92 1006.02 1006.00 1005.59 1005.08 1004.60 1004.36 1004.30 1004.41 1003.54 1002.43 1002.08 1001.64 1001.01 1000.72 1000.52 1000.09 999.86 1000.91 1001.95 1002.92 1003.91 1004.83 1005.45 1006.79 1007.92 1008.74 1008.79 1010.00 1010.94 1011.71 1012.26 1012.80 1013.48 1014.39 1014.93 1015.59 1016.54 1016.88 1017.31 1017.64
1005.83 1004.96 1005.34 1005.54 1005.57 1005.68 1005.30 1004.68 1004.34 1004.16 1003.96 1003.67 1003.61 1002.25 1001.76 1001.22 1000.81 1000.51 1000.24 1000.09 999.90 999.52 1000.69 1002.04 1003.38 1004.26 1005.10 1007.23 1007.41 1008.17 1008.51 1009.48 1010.55 1011.15 1011.98 1012.81 1013.49 1014.36 1014.97 1015.71 1016.48 1016.91 1017.26 1017.58
1005.10 1004.82 1004.88 1005.20 1005.16 1005.19 1004.48 1004.49 1004.51 1004.23 1003.99 1002.77 1002.37 1000.71 1000.06 999.79 999.82 999.69 999.57 999.52 999.48 999.62 1000.16 1000.98 1002.62 1004.10 1005.15 1004.45 1007.06 1008.22 1008.69 1009.07 1010.06 1010.79 1011.29 1011.94 1012.45 1013.22 1014.20 1015.13 1015.64 1016.59 1017.14 1017.38
1004.56 1004.56 1004.62 1004.59 1004.45 1004.54 1004.22 1004.16 1004.19 1004.10 1003.56 1003.15 1002.34 1001.77 1000.02 999.85 999.89 999.56 999.26 999.12 999.22 999.24 999.54 999.96 1000.85 1002.24 1003.49 1004.74 1005.90 1007.60 1008.48 1008.60 1008.34 1009.83 1010.13 1011.22 1012.16 1012.82 1013.59 1014.47 1015.35 1016.16 1016.92 1017.24
1005.22 1004.92 1005.00 1004.50 1004.24 1004.16 1004.24 1004.26 1004.30 1003.96 1003.40 1002.35 1001.70 1001.37 999.63 999.41 999.76 999.81 999.42 999.32 999.48 999.35 999.17 999.43 999.86 1001.52 1002.64 1004.28 1005.54 1006.08 1006.08 1007.75 1008.26 1009.61 1010.44 1010.60 1011.10 1011.81 1012.56 1013.63 1014.71 1015.53 1016.24 1016.85
1005.14 1004.95 1004.95 1005.81 1004.84 1004.22 1004.50 1004.27 1003.62 1003.22 1002.54 1000.58 1001.05 1000.81 999.88 1000.05 1000.78 1001.43 1001.31 1001.24 1001.31 1001.25 1000.73 1000.07 999.78 1000.47 1001.57 1003.06 1003.67 1004.74 1005.69 1006.54 1007.33 1008.04 1008.90 1010.16 1010.97 1011.41 1012.20 1012.52 1013.36 1014.35 1015.16 1015.92
1006.25 1005.36 1005.71 1006.20 1005.34 1004.42 1003.38 1003.80 1002.94 1002.12 1001.43 1000.16 1000.16 1000.32 1000.42 1001.56 1002.46 1002.66 1002.84 1002.72 1002.55 1002.20 1001.76 1001.52 1001.30 1000.46 1000.50 1001.91 1002.88 1003.57 1004.42 1005.26 1006.60 1007.50 1007.18 1008.54 1009.92 1010.16 1011.26 1011.85 1012.35 1013.46 1014.12 1015.00
1008.60 1007.14 1007.09 1007.03 1006.76 1006.34 1004.41 1004.00 1003.67 1002.89 1002.10 1000.98 1000.21 1000.26 1001.73 1002.57 1003.21 1003.54 1003.46 1003.34 1003.15 1002.79 1002.30 1001.98 1001.73 1001.69 1001.20 1000.70 1001.61 1002.72 1003.46 1004.30 1005.69 1006.80 1007.42 1008.14 1009.23 1010.12 1010.52 1011.31 1011.84 1012.80 1013.66 1014.43
1011.38 1009.89 1008.06 1008.14 1007.98 1006.95 1006.52 1006.25 1004.94 1004.24 1002.79 1001.29 1000.60 1000.44 1000.29 1002.07 1003.43 1004.26 1004.19 1004.18 1003.87 1003.46 1002.78 1002.36 1002.07 1002.08 1001.99 1001.48 1001.01 1002.19 1003.06 1003.50 1004.86 1006.37 1006.91 1007.42 1008.29 1009.38 1010.57 1011.45 1011.92 1012.56 1013.49 1014.05
1013.07 1011.98 1009.57 1009.22 1008.88 1008.03 1007.53 1006.95 1006.28 1005.40 1003.64 1002.20 1001.29 1000.72 1001.29 1002.56 1004.31 1004.79 1005.17 1005.14 1004.68 1004.05 1003.36 1002.80 1002.28 1002.08 1001.76 1001.50 1001.35 1000.97 1002.25 1003.05 1004.43 1005.36 1006.18 1007.06 1008.00 1008.72 1009.38 1011.25 1012.56 1012.18 1013.18 1013.84
1013.96 1013.12 1011.19 1010.00 1010.62 1010.90 1010.31 1009.60 1008.94 1007.71 1005.74 1003.90 1002.82 1002.25 1004.01 1004.60 1005.17 1005.91 1006.00 1006.02 1005.53 1004.84 1004.01 1003.30 1002.72 1002.32 1002.02 1001.54 1001.06 1000.73 1001.00 1002.38 1003.63 1004.68 1005.72 1006.56 1008.00 1008.68 1009.31 1007.56 1010.63 1011.99 1012.49 1013.44
1014.65 1013.32 1011.92 1010.51 1011.42 1011.43 1010.86 1010.88 1010.78 1010.26 1009.29 1006.50 1005.22 1004.06 1005.46 1005.82 1006.09 1006.61 1006.55 1006.57 1006.05 1005.37 1004.71 1003.88 1003.37 1002.91 1002.60 1001.92 1001.21 1000.61 1000.27 1001.39 1002.73 1004.09 1004.97 1006.00 1006.93 1008.28 1008.00 1009.26 1010.95 1011.40 1011.93 1012.82
1015.81 1014.18 1013.21 1011.71 1011.52 1012.07 1011.68 1011.41 1011.24 1010.79 1009.29 1007.78 1006.62 1005.17 1005.60 1005.90 1006.04 1006.40 1006.88 1007.14 1006.67 1005.96 1005.24 1004.72 1004.17 1003.61 1003.19 1002.69 1002.14 1001.11 1000.27 1000.81 1002.28 1003.26 1004.18 1005.20 1006.08 1007.38 1008.55 1008.92 1009.95 1012.54 1012.11 1012.80
1015.70 1014.44 1013.62 1013.21 1012.90 1012.73 1012.26 1011.76 1011.23 1010.60 1009.72 1008.62 1006.95 1006.06 1005.78 1006.51 1006.99 1007.28 1007.46 1007.32 1006.84 1006.44 1005.94 1005.34 1004.86 1004.32 1003.82 1003.65 1003.32 1002.46 1001.48 1001.13 1001.94 1002.68 1003.56 1004.66 1005.91 1006.61 1007.40 1008.81 1008.20 1010.56 1011.59 1012.14
1015.50 1014.87 1014.41 1013.55 1013.03 1012.60 1011.75 1011.07 1010.62 1010.24 1009.66 1008.96 1008.35 1007.37 1007.31 1007.37 1007.60 1007.40 1007.26 1007.09 1006.98 1006.90 1006.62 1006.27 1005.68 1005.28 1004.82 1004.30 1003.96 1003.60 1002.99 1002.31 1002.24 1002.80 1003.74 1004.66 1005.43 1006.14 1006.67 1007.44 1008.31 1007.62 1009.21 1011.13
1015.21 1014.95 1014.37 1013.34 1012.92 1012.76 1011.19 1009.70 1009.34 1009.16 1009.01 1008.68 1007.84 1006.80 1007.01 1007.34 1007.39 1007.30 1007.20 1007.28 1007.30 1007.27 1007.02 1006.64 1006.29 1005.88 1005.63 1005.07 1004.49 1003.85 1003.54 1003.32 1003.13 1003.24 1003.52 1004.08 1004.86 1005.59 1006.29 1006.72 1007.38 1007.88 1007.72 1008.86
1015.23 1014.97 1014.70 1013.87 1013.24 1012.09 1010.12 1010.19 1009.68 1008.81 1008.17 1008.25 1008.00 1007.49 1007.55 1007.47 1007.37 1007.32 1007.42 1007.46 1007.50 1007.46 1007.27 1006.83 1006.42 1006.41 1006.22 1005.88 1005.22 1004.50 1004.11 1004.19 1004.04 1003.61 1003.29 1003.49 1004.20 1004.78 1005.32 1006.33 1006.71 1007.53 1008.07 1008.70
1014.83 1015.04 1014.60 1014.14 1013.14 1011.68 1010.26 1009.54 1009.57 1008.71 1007.94 1007.84 1007.52 1007.28 1007.25 1007.40 1007.39 1007.09 1007.48 1007.64 1007.54 1007.55 1007.50 1007.18 1006.93 1006.55 1006.45 1006.50 1006.10 1005.43 1004.92 1004.96 1004.80 1004.62 1004.15 1003.72 1003.88 1004.25 1004.88 1005.92 1006.60 1007.24 1008.02 1008.71
1014.54 1014.89 1014.46 1013.83 1013.02 1011.40 1009.56 1009.40 1009.30 1009.19 1007.65 1007.66 1007.25 1007.33 1007.81 1007.91 1007.18 1006.61 1007.26 1008.10 1008.22 1008.05 1007.85 1007.54 1007.30 1006.76 1006.40 1006.68 1006.60 1005.94 1005.53 1005.75 1005.85 1005.75 1005.26 1004.80 1004.24 1004.36 1004.72 1005.36 1006.18 1007.01 1007.68 1008.62
1013.87 1014.45 1014.46 1014.06 1013.08 1011.20 1009.98 1009.50 1009.62 1009.18 1007.93 1007.91 1008.07 1008.15 1008.22 1008.18 1007.84 1007.89 1008.36 1008.24 1008.26 1008.09 1007.69 1007.25 1006.93 1006.60 1006.40 1006.68 1007.07 1006.49 1006.28 1006.40 1006.70 1006.55 1006.58 1005.83 1005.54 1005.14 1005.32 1005.83 1006.41 1007.12 1007.85 1008.83
1013.59 1013.56 1013.55 1013.29 1012.57 1010.98 1009.79 1009.64 1009.27 1008.36 1008.18 1008.24 1008.57 1008.84 1008.96 1008.77 1008.37 1008.48 1008.37 1008.25 1008.09 1008.03 1007.74 1007.30 1006.84 1006.50 1006.40 1006.21 1006.96 1007.16 1007.22 1007.43 1007.20 1007.19 1007.45 1007.02 1007.54 1007.02 1006.70 1006.99 1007.59 1008.04 1008.68 1009.56
1014.04 1013.82 1013.90 1013.16 1011.81 1010.38 1010.17 1010.51 1010.78 1010.26 1009.82 1009.46 1009.30 1009.26 1009.23 1008.86 1008.62 1008.26 1008.00 1007.94 1007.90 1007.79 1007.69 1007.43 1006.92 1006.46 1006.34 1006.48 1006.84 1007.34 1007.89 1007.96 1007.98 1007.95 1008.36 1008.22 1009.32 1009.54 1009.32 1009.46 1009.47 1009.17 1009.41 1009.98
1014.36 1014.48 1014.70 1014.26 1011.92 1011.68 1011.12 1010.72 1010.36 1010.35 1009.95 1009.75 1009.44 1009.46 1009.33 1008.82 1008.68 1008.32 1007.94 1007.58 1007.44 1007.35 1007.21 1007.16 1006.94 1006.45 1006.06 1006.15 1006.44 1007.03 1007.58 1007.89 1008.12 1008.40 1009.05 1009.42 1009.24 1010.25 1010.44 1010.47 1011.68 1009.91 1009.84 1010.48
1014.69 1015.13 1014.14 1013.22 1012.35 1011.78 1011.28 1010.60 1010.23 1009.54 1009.53 1009.22 1009.02 1008.78 1008.51 1008.27 1007.73 1007.23 1006.99 1006.97 1006.92 1006.84 1006.76 1006.91 1006.73 1006.57 1006.25 1006.62 1006.60 1006.70 1007.10 1007.68 1008.31 1008.78 1009.50 1009.74 1010.47 1010.82 1011.00 1011.02 1013.07 1011.16 1010.94 1011.79
1014.40 1014.59 1014.70 1013.75 1013.50 1012.88 1011.62 1010.91 1010.46 1010.13 1009.77 1009.37 1009.20 1008.55 1007.78 1007.24 1006.80 1006.41 1006.27 1006.28 1006.42 1006.34 1006.28 1006.46 1006.51 1006.50 1006.42 1006.67 1006.54 1006.64 1006.76 1007.28 1007.87 1008.67 1009.65 1010.42 1011.06 1011.53 1011.88 1012.38 1013.11 1012.43 1012.07 1012.72
Wind_Speed
13 12 15 17 17 17 16 12 13 12 4 10 13 15 16 17 19 16 16 18 20 21 16 16 17 17 18 19 19 20 20 17 14 12 12 11 10 8 7 7 8 8 8 8
8 15 14 12 13 15 17 18 19 16 11 13 16 20 18 19 18 19 18 19 20 19 13 14 18 19 20 19 21 19 20 19 16 12 11 11 10 9 8 7 8 8 9 9
18 12 5 15 14 15 16 17 14 15 12 13 14 21 21 20 23 21 21 20 20 18 24 15 16 18 18 17 21 20 20 20 17 16 11 10 9 7 9 9 8 9 10 10
17 16 12 14 16 17 18 17 16 15 15 15 16 17 16 14 17 23 21 22 20 18 17 18 16 19 20 22 18 16 17 20 19 19 16 17 13 13 10 9 10 10 11 10
15 17 15 18 18 18 16 16 14 17 17 16 19 12 15 17 13 17 19 22 20 19 15 19 20 21 21 18 18 17 17 17 22 21 20 17 14 11 10 11 13 10 11 11
19 5 9 13 13 15 12 12 11 15 15 17 22 19 14 13 16 13 14 16 11 14 17 17 17 19 18 19 21 22 22 21 15 17 16 20 20 16 14 14 13 12 11 10
9 15 7 7 16 17 14 15 12 14 15 20 16 18 15 10 6 6 11 10 9 9 9 10 13 16 17 20 23 21 24 24 26 25 25 21 20 18 17 18 15 15 12 11
11 12 10 2 7 14 16 20 16 22 17 18 19 12 13 7 3 1 3 4 5 7 8 7 8 11 16 20 21 22 23 23 24 23 23 23 24 16 14 16 14 13 13 13
8 11 5 1 3 5 12 15 15 20 21 18 14 14 10 10 6 2 3 5 9 11 10 9 7 6 12 14 19 20 21 21 21 22 19 21 20 16 16 17 15 13 12 13
4 10 8 4 10 10 10 9 10 12 21 24 19 23 16 15 5 2 5 9 10 11 11 11 9 7 7 12 13 18 21 21 21 20 20 18 20 17 11 12 15 15 13 13
3 6 10 6 4 12 7 12 13 9 13 17 19 16 10 12 6 6 8 10 12 12 12 12 11 10 9 8 14 15 18 19 19 20 21 20 20 19 16 10 12 14 14 15
4 7 11 13 6 3 2 7 11 10 16 14 17 10 7 7 8 6 7 10 12 13 13 13 14 12 11 10 9 15 16 19 18 15 20 16 17 18 17 25 21 18 17 17
2 6 9 12 11 11 8 2 3 7 11 18 11 13 8 6 5 6 9 12 12 13 13 14 14 14 13 13 12 10 15 16 16 18 20 20 20 17 16 4 14 16 17 18
4 9 11 12 11 7 7 7 6 9 9 16 21 24 8 6 6 7 11 13 13 13 13 12 13 15 15 14 14 13 10 11 14 17 17 19 19 18 18 18 15 12 16 16
6 12 9 12 11 12 14 15 14 14 14 14 15 14 17 12 15 16 13 12 12 12 14 14 13 14 15 15 14 11 11 8 11 14 15 17 18 19 18 19 17 20 17 17
6 9 8 14 16 15 19 20 18 18 18 17 17 22 17 11 10 13 12 11 11 12 12 14 14 13 13 14 14 11 9 8 8 11 14 15 18 19 21 21 22 25 21 16
10 10 11 13 8 12 13 19 19 18 19 17 19 20 11 12 12 11 11 11 13 13 13 11 12 11 12 13 14 13 7 6 7 11 14 15 17 19 20 20 20 17 21 22
15 12 10 12 13 14 7 5 8 12 13 14 18 20 16 16 16 15 13 14 14 14 13 11 8 8 10 13 14 11 8 4 6 8 10 11 14 17 19 18 19 17 16 17
16 14 12 10 12 16 21 16 12 12 17 12 16 18 17 15 16 17 13 13 13 13 13 12 11 12 8 9 11 12 11 9 5 6 7 9 12 14 16 19 18 17 17 16
8 13 11 11 11 12 8 0 5 5 18 20 17 11 7 9 10 9 9 9 11 12 13 13 15 13 13 8 9 7 9 9 8 8 6 10 7 10 13 17 17 16 16 15
9 8 13 12 12 11 12 15 10 15 9 3 1 6 9 12 12 12 9 11 8 10 12 11 12 12 12 3 3 5 4 9 6 6 6 10 11 4 9 12 11 13 13 14
9 6 8 9 13 15 7 12 22 16 14 13 12 13 12 16 15 12 11 11 11 10 11 10 9 9 9 8 3 3 3 6 8 11 11 12 9 8 6 11 10 12 13 13
6 7 9 9 8 15 18 17 21 22 19 20 21 18 19 18 17 18 15 15 13 11 9 9 9 7 8 6 7 6 6 5 8 11 10 14 11 10 9 8 5 8 9 10
9 12 8 10 14 20 22 21 21 22 24 24 22 22 20 24 23 23 19 17 15 14 9 8 9 9 7 6 7 6 11 7 8 10 9 6 12 7 7 9 7 6 9 7
13 10 13 20 23 20 19 18 21 19 20 22 24 26 22 22 20 19 16 16 16 14 10 8 8 7 7 7 5 7 9 10 9 8 8 7 4 7 5 10 3 3 10 8
7 7 5 9 21 19 20 22 23 20 19 19 22 22 22 19 19 16 14 12 13 14 12 9 9 9 7 8 4 4 7 9 10 9 8 6 5 6 6 7 5 5 7 7
Wind_Direction
195 221 224 231 228 258 277 266 262 260 260 266 264 254 248 252 256 247 250 254 242 236 220 195 192 187 181 185 185 180 167 166 172 176 178 173 174 169 172 168 151 164 159 155
185 232 247 243 245 244 243 245 245 249 253 261 260 255 248 252 255 252 257 247 250 203 221 200 186 181 181 186 190 187 169 167 177 179 182 179 174 173 171 163 166 170 166 165
243 258 283 228 226 230 234 240 242 251 254 239 266 263 251 248 252 253 250 254 253 236 202 204 196 186 179 191 191 191 178 168 176 178 176 168 161 174 171 167 171 174 173 177
242 256 239 238 239 226 247 222 248 248 248 253 227 269 257 227 238 237 243 240 236 237 240 220 203 194 193 177 192 192 179 172 182 177 173 177 175 174 180 181 175 167 181 180
236 226 232 237 238 233 247 266 230 249 251 257 246 248 260 246 225 247 240 242 246 247 251 234 206 205 203 191 186 188 187 192 178 186 181 177 188 184 173 182 158 179 175 184
258 301 271 269 258 243 252 264 256 256 253 245 237 250 249 242 214 237 243 245 272 271 249 253 217 215 203 200 189 188 180 192 191 188 194 193 185 187 177 181 172 181 177 180
207 241 229 261 250 243 232 236 238 225 225 243 238 235 244 266 17 336 327 325 334 327 300 289 231 219 212 199 204 194 196 190 188 178 190 193 197 189 183 174 178 180 182 184
275 209 201 133 262 290 217 232 235 243 247 255 222 229 258 99 76 36 285 320 345 343 342 329 313 293 214 203 213 203 207 203 195 207 193 188 194 190 183 184 179 185 187 183
306 244 130 155 298 284 240 236 261 271 267 265 264 210 139 158 117 100 61 29 12 0 355 350 336 299 286 230 205 220 216 209 197 199 199 197 195 186 196 183 180 181 186 178
46 274 241 336 287 223 262 349 234 221 247 247 236 246 253 161 140 79 36 18 13 357 354 356 348 336 298 278 232 209 224 215 210 198 202 192 183 175 193 182 188 181 182 174
308 248 258 263 240 297 239 235 238 291 263 244 246 248 24 102 107 58 25 9 3 357 356 350 351 346 317 278 260 216 214 219 213 202 205 192 187 175 160 184 207 176 173 174
46 298 272 272 67 347 310 284 290 272 255 245 262 257 92 91 77 38 22 4 354 351 355 360 356 355 343 330 285 252 206 214 212 202 207 198 184 182 201 161 191 182 175 179
26 229 274 221 198 216 245 202 270 246 282 264 251 257 116 115 101 37 9 355 345 346 355 355 359 4 358 350 331 270 235 200 208 211 205 199 195 185 173 186 185 179 176 181
278 267 270 284 355 331 274 233 258 266 256 240 253 269 173 249 271 307 333 323 329 334 345 357 357 3 5 3 345 318 257 196 202 207 202 205 197 179 177 158 160 203 181 183
257 273 284 281 287 283 268 265 264 246 257 262 263 286 283 304 316 306 301 299 310 332 339 347 354 358 6 9 356 333 303 235 215 213 200 200 197 187 179 187 157 178 190 185
205 275 276 282 277 273 276 267 255 248 253 255 266 267 274 290 293 302 298 289 298 310 328 331 340 351 358 360 2 343 301 282 226 200 212 200 203 196 188 171 183 175 167 180
247 267 272 279 292 297 273 261 248 245 236 245 250 262 305 295 281 294 307 307 291 292 304 313 328 335 352 350 358 350 313 272 240 217 212 206 201 204 194 189 191 187 170 165
259 250 262 270 283 264 265 315 282 275 241 242 253 268 278 274 283 284 291 302 302 300 284 296 297 340 343 353 9 4 7 317 282 246 230 211 207 206 197 193 195 183 170 163
229 247 257 249 259 261 276 263 233 255 266 247 259 267 271 294 292 273 273 275 293 295 295 289 299 292 301 330 343 16 25 357 20 347 294 226 213 202 194 187 194 179 176 170
211 225 235 250 237 256 280 55 262 285 269 263 254 268 263 296 279 284 21 349 314 307 298 291 290 293 280 300 298 342 40 35 8 359 12 338 222 209 185 177 180 177 172 171
193 211 231 240 250 263 274 277 226 241 280 96 186 271 283 285 294 322 318 292 305 309 307 289 281 283 282 241 289 314 36 55 54 59 28 38 356 185 179 168 160 163 163 151
277 260 232 240 249 262 237 259 243 257 281 296 288 281 296 290 281 280 282 285 290 305 317 311 293 286 296 263 211 207 121 52 74 84 83 63 31 37 81 128 140 147 140 148
257 252 299 277 274 297 310 295 293 296 287 290 291 290 293 283 273 284 276 280 278 286 293 297 292 282 280 256 235 188 159 139 75 76 75 89 60 46 71 109 111 126 138 137
276 283 246 282 253 261 269 279 276 267 272 274 272 272 272 270 268 269 267 268 263 269 270 283 285 283 272 277 257 215 166 153 125 107 87 66 106 78 31 57 341 130 112 104
282 277 257 265 274 295 278 282 294 282 280 271 272 265 263 265 258 259 265 258 254 256 258 264 275 278 273 265 281 233 201 167 151 136 132 109 76 100 78 61 333 5 56 51
282 310 298 294 304 288 283 288 285 282 272 262 261 269 268 250 256 257 261 260 257 252 247 245 258 267 283 263 282 251 223 217 187 155 145 131 130 141 145 140 158 53 88 80